Time,TemperatureF,DewpointF,PressureIn,WindDirection,WindDirectionDegrees,WindSpeedMPH,WindSpeedGustMPH,Humidity,HourlyPrecipIn,Conditions,Clouds,dailyrainin,SolarRadiationWatts/m^2,SoftwareType,DateUTC
2013-02-06 00:02:00,44.2,40.3,30.19,SSE,164,0.0,0.0,86,0.00,,,0.00,0,Wunderground v.1.15,2013-02-06 08:02:00,
2013-02-06 00:12:00,44.1,40.2,30.20,SSE,164,0.0,0.0,86,0.00,,,0.00,0,Wunderground v.1.15,2013-02-06 08:12:00,
2013-02-06 00:22:00,44.2,40.6,30.20,South,182,0.0,0.0,87,0.00,,,0.00,0,Wunderground v.1.15,2013-02-06 08:22:00,
2013-02-06 00:32:00,44.2,40.6,30.19,SW,227,0.0,0.0,87,0.00,,,0.00,0,Wunderground v.1.15,2013-02-06 08:32:00,
2013-02-06 00:42:00,44.3,40.7,30.20,WSW,245,0.0,0.0,87,0.00,,,0.00,0,Wunderground v.1.15,2013-02-06 08:42:00,
2013-02-06 00:52:00,44.3,40.4,30.19,West,276,0.0,0.0,86,0.00,,,0.00,0,Wunderground v.1.15,2013-02-06 08:52:00,
2013-02-06 01:02:00,44.4,40.5,30.19,West,274,0.0,0.0,86,0.00,,,0.00,0,Wunderground v.1.15,2013-02-06 09:02:00,
2013-02-06 01:12:00,44.4,40.5,30.19,West,273,0.0,0.0,86,0.00,,,0.00,0,Wunderground v.1.15,2013-02-06 09:12:00,
2013-02-06 01:22:00,44.3,40.4,30.19,West,273,0.0,0.0,86,0.00,,,0.00,0,Wunderground v.1.15,2013-02-06 09:22:00,
2013-02-06 01:32:00,44.2,40.3,30.18,West,275,0.0,0.0,86,0.00,,,0.00,0,Wunderground v.1.15,2013-02-06 09:32:00,
2013-02-06 01:42:00,44.1,39.9,30.18,West,275,0.0,0.0,85,0.00,,,0.00,0,Wunderground v.1.15,2013-02-06 09:42:00,
2013-02-06 01:52:00,43.8,39.6,30.18,West,275,0.0,0.0,85,0.00,,,0.00,0,Wunderground v.1.15,2013-02-06 09:52:00,
2013-02-06 02:02:00,43.6,39.7,30.19,SW,228,0.0,0.0,86,0.00,,,0.00,0,Wunderground v.1.15,2013-02-06 10:02:00,
2013-02-06 02:12:00,43.5,39.3,30.19,SW,228,0.0,0.0,85,0.00,,,0.00,0,Wunderground v.1.15,2013-02-06 10:12:00,
2013-02-06 02:22:00,43.1,39.2,30.19,SW,217,1.0,1.0,86,0.00,,,0.00,0,Wunderground v.1.15,2013-02-06 10:22:00,
2013-02-06 02:32:00,43.0,39.1,30.19,SW,217,0.0,0.0,86,0.00,,,0.00,0,Wunderground v.1.15,2013-02-06 10:32:00,
2013-02-06 02:42:00,42.6,38.7,30.19,SSE,165,2.0,3.0,86,0.00,,,0.00,0,Wunderground v.1.15,2013-02-06 10:42:00,
2013-02-06 02:52:00,41.8,37.9,30.19,SSE,161,4.0,4.0,86,0.00,,,0.00,0,Wunderground v.1.15,2013-02-06 10:52:00,
2013-02-06 03:02:00,41.1,37.5,30.18,SSE,167,4.0,4.0,87,0.00,,,0.00,0,Wunderground v.1.15,2013-02-06 11:02:00,
2013-02-06 03:12:00,40.4,36.8,30.18,SSE,161,4.0,4.0,87,0.00,,,0.00,0,Wunderground v.1.15,2013-02-06 11:12:00,
2013-02-06 03:22:00,40.8,37.5,30.19,SSE,165,3.0,3.0,88,0.00,,,0.00,0,Wunderground v.1.15,2013-02-06 11:22:00,
2013-02-06 03:32:00,40.5,37.5,30.19,South,174,3.0,3.0,89,0.00,,,0.00,0,Wunderground v.1.15,2013-02-06 11:32:00,
2013-02-06 03:42:00,40.8,37.8,30.19,South,175,3.0,3.0,89,0.00,,,0.00,0,Wunderground v.1.15,2013-02-06 11:42:00,
2013-02-06 03:52:00,40.3,37.3,30.19,SSE,161,4.0,4.0,89,0.00,,,0.00,0,Wunderground v.1.15,2013-02-06 11:52:00,
2013-02-06 04:02:00,40.3,37.3,30.20,SSE,163,4.0,4.0,89,0.00,,,0.00,0,Wunderground v.1.15,2013-02-06 12:02:00,
2013-02-06 04:12:00,40.1,37.1,30.20,SE,146,4.0,5.0,89,0.00,,,0.00,0,Wunderground v.1.15,2013-02-06 12:12:00,
2013-02-06 04:22:00,40.1,37.1,30.19,SSE,149,4.0,4.0,89,0.00,,,0.00,0,Wunderground v.1.15,2013-02-06 12:22:00,
2013-02-06 04:32:00,39.8,37.1,30.20,SSE,156,3.0,4.0,90,0.00,,,0.00,0,Wunderground v.1.15,2013-02-06 12:32:00,
2013-02-06 04:42:00,40.0,37.3,30.20,SSE,160,3.0,3.0,90,0.00,,,0.00,0,Wunderground v.1.15,2013-02-06 12:42:00,
2013-02-06 04:52:00,39.2,36.2,30.20,SSE,165,3.0,3.0,89,0.00,,,0.01,0,Wunderground v.1.15,2013-02-06 12:52:00,
2013-02-06 05:02:00,39.1,36.4,30.20,SSE,160,2.0,3.0,90,0.00,,,0.01,0,Wunderground v.1.15,2013-02-06 13:02:00,
2013-02-06 05:12:00,39.3,36.6,30.20,SSE,160,2.0,2.0,90,0.00,,,0.01,0,Wunderground v.1.15,2013-02-06 13:12:00,
2013-02-06 05:22:00,39.4,36.7,30.20,SSE,160,1.0,4.0,90,0.00,,,0.01,0,Wunderground v.1.15,2013-02-06 13:22:00,
2013-02-06 05:32:00,39.2,36.5,30.20,SSE,160,3.0,4.0,90,0.00,,,0.01,0,Wunderground v.1.15,2013-02-06 13:32:00,
2013-02-06 05:42:00,38.8,36.1,30.20,SSE,165,4.0,4.0,90,0.00,,,0.01,0,Wunderground v.1.15,2013-02-06 13:42:00,
2013-02-06 05:52:00,38.9,36.5,30.20,South,186,4.0,4.0,91,0.00,,,0.01,0,Wunderground v.1.15,2013-02-06 13:52:00,
2013-02-06 06:02:00,38.9,36.5,30.20,SSE,165,3.0,3.0,91,0.00,,,0.01,0,Wunderground v.1.15,2013-02-06 14:02:00,
2013-02-06 06:12:00,38.8,36.4,30.21,South,171,3.0,3.0,91,0.00,,,0.01,0,Wunderground v.1.15,2013-02-06 14:12:00,
2013-02-06 06:22:00,38.6,35.9,30.21,SSE,163,3.0,3.0,90,0.00,,,0.01,0,Wunderground v.1.15,2013-02-06 14:22:00,
2013-02-06 06:32:00,38.3,35.9,30.21,SSE,168,3.0,3.0,91,0.00,,,0.01,0,Wunderground v.1.15,2013-02-06 14:32:00,
2013-02-06 06:42:00,38.3,35.9,30.22,SSE,155,3.0,5.0,91,0.00,,,0.01,0,Wunderground v.1.15,2013-02-06 14:42:00,
2013-02-06 06:52:00,38.3,35.9,30.22,SSE,158,4.0,4.0,91,0.00,,,0.01,0,Wunderground v.1.15,2013-02-06 14:52:00,
2013-02-06 07:02:00,38.1,35.7,30.22,SSE,165,4.0,4.0,91,0.00,,,0.01,0,Wunderground v.1.15,2013-02-06 15:02:00,
2013-02-06 07:12:00,38.2,35.8,30.22,SSE,156,4.0,4.0,91,0.00,,,0.01,5,Wunderground v.1.15,2013-02-06 15:12:00,
2013-02-06 07:22:00,37.8,35.4,30.22,SSE,150,4.0,4.0,91,0.00,,,0.01,14,Wunderground v.1.15,2013-02-06 15:22:00,
2013-02-06 07:32:00,37.5,35.1,30.22,SSE,157,5.0,7.0,91,0.00,,,0.01,26,Wunderground v.1.15,2013-02-06 15:32:00,
2013-02-06 07:42:00,37.8,35.7,30.22,SSE,153,5.0,5.0,92,0.00,,,0.01,47,Wunderground v.1.15,2013-02-06 15:42:00,
2013-02-06 07:52:00,38.4,36.3,30.22,SSE,154,4.0,4.0,92,0.00,,,0.01,74,Wunderground v.1.15,2013-02-06 15:52:00,
2013-02-06 08:02:00,38.8,36.7,30.23,SE,146,4.0,5.0,92,0.00,,,0.01,105,Wunderground v.1.15,2013-02-06 16:02:00,
2013-02-06 08:12:00,39.6,37.5,30.23,SE,145,5.0,5.0,92,0.00,,,0.01,137,Wunderground v.1.15,2013-02-06 16:12:00,
2013-02-06 08:22:00,40.7,38.6,30.23,SE,139,5.0,5.0,92,0.00,,,0.01,174,Wunderground v.1.15,2013-02-06 16:22:00,
2013-02-06 08:32:00,41.4,38.7,30.24,SSE,159,6.0,6.0,90,0.00,,,0.01,207,Wunderground v.1.15,2013-02-06 16:32:00,
2013-02-06 08:42:00,42.5,39.5,30.24,SE,134,6.0,6.0,89,0.00,,,0.01,243,Wunderground v.1.15,2013-02-06 16:42:00,
2013-02-06 08:52:00,43.8,40.5,30.23,SE,142,6.0,6.0,88,0.00,,,0.01,272,Wunderground v.1.15,2013-02-06 16:52:00,
2013-02-06 09:02:00,44.3,40.7,30.24,SSE,148,6.0,9.0,87,0.00,,,0.01,302,Wunderground v.1.15,2013-02-06 17:02:00,
2013-02-06 09:12:00,45.0,41.1,30.23,SSE,163,7.0,7.0,86,0.00,,,0.01,329,Wunderground v.1.15,2013-02-06 17:12:00,
2013-02-06 09:22:00,45.8,41.5,30.23,SSE,151,7.0,7.0,85,0.00,,,0.01,353,Wunderground v.1.15,2013-02-06 17:22:00,
2013-02-06 09:32:00,47.2,42.3,30.23,SSE,159,5.0,6.0,83,0.00,,,0.01,385,Wunderground v.1.15,2013-02-06 17:32:00,
2013-02-06 09:42:00,47.5,41.6,30.24,SSE,147,6.0,10.0,80,0.00,,,0.01,408,Wunderground v.1.15,2013-02-06 17:42:00,
2013-02-06 09:52:00,49.3,42.7,30.23,SE,134,5.0,5.0,78,0.00,,,0.01,432,Wunderground v.1.15,2013-02-06 17:52:00,
2013-02-06 10:02:00,49.6,42.7,30.23,SE,146,5.0,5.0,77,0.00,,,0.01,455,Wunderground v.1.15,2013-02-06 18:02:00,
2013-02-06 10:12:00,50.4,42.4,30.23,SSE,150,5.0,12.0,74,0.00,,,0.01,476,Wunderground v.1.15,2013-02-06 18:12:00,
2013-02-06 10:22:00,50.9,43.6,30.23,SE,146,6.0,6.0,76,0.00,,,0.01,496,Wunderground v.1.15,2013-02-06 18:22:00,
2013-02-06 10:32:00,52.7,43.9,30.24,East,84,5.0,5.0,72,0.00,,,0.01,517,Wunderground v.1.15,2013-02-06 18:32:00,
2013-02-06 10:42:00,54.1,44.2,30.24,ESE,123,2.0,2.0,69,0.00,,,0.01,534,Wunderground v.1.15,2013-02-06 18:42:00,
2013-02-06 10:52:00,54.5,44.5,30.23,ESE,123,2.0,2.0,69,0.00,,,0.01,548,Wunderground v.1.15,2013-02-06 18:52:00,
2013-02-06 11:02:00,55.3,43.7,30.23,SE,146,2.0,2.0,65,0.00,,,0.01,564,Wunderground v.1.15,2013-02-06 19:02:00,
2013-02-06 11:12:00,56.4,44.4,30.22,SE,146,1.0,1.0,64,0.00,,,0.01,575,Wunderground v.1.15,2013-02-06 19:12:00,
2013-02-06 11:22:00,55.6,41.0,30.22,SE,146,0.0,2.0,58,0.00,,,0.01,587,Wunderground v.1.15,2013-02-06 19:22:00,
2013-02-06 11:32:00,55.8,41.2,30.22,West,259,1.0,1.0,58,0.00,,,0.01,598,Wunderground v.1.15,2013-02-06 19:32:00,
2013-02-06 11:42:00,56.4,42.2,30.21,West,263,1.0,3.0,59,0.00,,,0.01,601,Wunderground v.1.15,2013-02-06 19:42:00,
2013-02-06 11:52:00,56.3,42.6,30.21,WSW,248,1.0,1.0,60,0.00,,,0.01,606,Wunderground v.1.15,2013-02-06 19:52:00,
2013-02-06 12:02:00,57.1,42.5,30.21,North,360,2.0,2.0,58,0.00,,,0.01,606,Wunderground v.1.15,2013-02-06 20:02:00,
2013-02-06 12:12:00,56.9,42.3,30.20,North,360,2.0,5.0,58,0.00,,,0.01,608,Wunderground v.1.15,2013-02-06 20:12:00,
2013-02-06 12:22:00,57.6,42.5,30.20,SSW,192,3.0,3.0,57,0.00,,,0.01,608,Wunderground v.1.15,2013-02-06 20:22:00,
2013-02-06 12:32:00,59.0,42.8,30.19,East,87,0.0,0.0,55,0.00,,,0.01,606,Wunderground v.1.15,2013-02-06 20:32:00,
2013-02-06 12:42:00,57.7,42.6,30.19,North,5,2.0,2.0,57,0.00,,,0.01,601,Wunderground v.1.15,2013-02-06 20:42:00,
2013-02-06 12:52:00,58.0,43.3,30.19,NW,310,1.0,1.0,58,0.00,,,0.01,605,Wunderground v.1.15,2013-02-06 20:52:00,
2013-02-06 13:02:00,59.0,43.3,30.19,West,264,0.0,0.0,56,0.00,,,0.01,599,Wunderground v.1.15,2013-02-06 21:02:00,
2013-02-06 13:12:00,58.6,43.9,30.18,North,5,1.0,1.0,58,0.00,,,0.01,589,Wunderground v.1.15,2013-02-06 21:12:00,
2013-02-06 13:22:00,59.7,44.0,30.18,ENE,77,0.0,0.0,56,0.00,,,0.01,575,Wunderground v.1.15,2013-02-06 21:22:00,
2013-02-06 13:32:00,60.0,43.8,30.17,East,83,0.0,1.0,55,0.00,,,0.01,568,Wunderground v.1.15,2013-02-06 21:32:00,
2013-02-06 13:42:00,59.9,43.2,30.17,WNW,283,1.0,1.0,54,0.00,,,0.01,552,Wunderground v.1.15,2013-02-06 21:42:00,
2013-02-06 13:52:00,60.2,44.4,30.16,West,281,1.0,1.0,56,0.00,,,0.01,536,Wunderground v.1.15,2013-02-06 21:52:00,
2013-02-06 14:02:00,59.7,43.0,30.16,SSE,147,0.0,0.0,54,0.00,,,0.01,429,Wunderground v.1.15,2013-02-06 22:02:00,
2013-02-06 14:12:00,60.0,43.8,30.16,West,260,0.0,1.0,55,0.00,,,0.01,504,Wunderground v.1.15,2013-02-06 22:12:00,
2013-02-06 14:22:00,59.0,43.8,30.16,SW,236,1.0,1.0,57,0.00,,,0.01,468,Wunderground v.1.15,2013-02-06 22:22:00,
2013-02-06 14:32:00,59.0,43.8,30.16,SW,222,1.0,1.0,57,0.00,,,0.01,255,Wunderground v.1.15,2013-02-06 22:32:00,
2013-02-06 14:52:00,59.3,42.6,30.16,WNW,283,1.0,1.0,54,0.00,,,0.01,113,Wunderground v.1.15,2013-02-06 22:52:00,
2013-02-06 15:02:00,59.0,42.8,30.16,WSW,245,1.0,1.0,55,0.00,,,0.01,234,Wunderground v.1.15,2013-02-06 23:02:00,
2013-02-06 15:12:00,58.5,41.9,30.16,West,281,1.0,1.0,54,0.00,,,0.01,378,Wunderground v.1.15,2013-02-06 23:12:00,
2013-02-06 15:22:00,57.7,42.1,30.16,West,281,1.0,1.0,56,0.00,,,0.01,248,Wunderground v.1.15,2013-02-06 23:22:00,
2013-02-06 15:32:00,57.4,42.3,30.16,WNW,288,1.0,1.0,57,0.00,,,0.01,49,Wunderground v.1.15,2013-02-06 23:32:00,
2013-02-06 15:42:00,57.4,42.3,30.16,West,281,1.0,1.0,57,0.00,,,0.01,44,Wunderground v.1.15,2013-02-06 23:42:00,
2013-02-06 15:52:00,57.3,42.6,30.16,NE,36,1.0,2.0,58,0.00,,,0.01,42,Wunderground v.1.15,2013-02-06 23:52:00,
2013-02-06 16:02:00,57.0,42.8,30.16,North,350,1.0,1.0,59,0.00,,,0.01,40,Wunderground v.1.15,2013-02-07 00:02:00,
2013-02-06 16:12:00,56.6,42.9,30.16,ENE,70,1.0,1.0,60,0.00,,,0.01,39,Wunderground v.1.15,2013-02-07 00:12:00,
2013-02-06 16:22:00,56.3,43.0,30.17,NNE,20,1.0,1.0,61,0.00,,,0.01,35,Wunderground v.1.15,2013-02-07 00:22:00,
2013-02-06 16:32:00,55.9,42.6,30.17,WNW,286,1.0,1.0,61,0.00,,,0.01,32,Wunderground v.1.15,2013-02-07 00:32:00,
2013-02-06 16:42:00,55.5,42.7,30.17,NNW,333,0.0,0.0,62,0.00,,,0.01,28,Wunderground v.1.15,2013-02-07 00:42:00,
2013-02-06 16:52:00,55.2,43.2,30.17,NE,53,0.0,0.0,64,0.00,,,0.01,25,Wunderground v.1.15,2013-02-07 00:52:00,
2013-02-06 17:02:00,54.8,43.3,30.17,NE,55,0.0,0.0,65,0.00,,,0.01,21,Wunderground v.1.15,2013-02-07 01:02:00,
2013-02-06 17:12:00,54.4,43.3,30.17,NE,46,0.0,0.0,66,0.00,,,0.01,16,Wunderground v.1.15,2013-02-07 01:12:00,
2013-02-06 17:22:00,53.9,43.2,30.17,NE,46,0.0,0.0,67,0.00,,,0.01,11,Wunderground v.1.15,2013-02-07 01:22:00,
2013-02-06 17:32:00,53.3,43.0,30.17,NE,46,0.0,0.0,68,0.00,,,0.01,5,Wunderground v.1.15,2013-02-07 01:32:00,
2013-02-06 17:42:00,52.8,42.9,30.17,NE,46,0.0,0.0,69,0.00,,,0.01,0,Wunderground v.1.15,2013-02-07 01:42:00,
2013-02-06 17:52:00,52.1,42.6,30.17,NE,45,0.0,0.0,70,0.00,,,0.01,0,Wunderground v.1.15,2013-02-07 01:52:00,
2013-02-06 18:02:00,51.7,42.6,30.17,NE,45,0.0,0.0,71,0.00,,,0.01,0,Wunderground v.1.15,2013-02-07 02:02:00,
2013-02-06 18:12:00,51.3,42.9,30.17,NE,45,0.0,0.0,73,0.00,,,0.01,0,Wunderground v.1.15,2013-02-07 02:12:00,
2013-02-06 18:22:00,51.1,43.1,30.18,NE,45,0.0,0.0,74,0.00,,,0.01,0,Wunderground v.1.15,2013-02-07 02:22:00,
2013-02-06 18:32:00,50.7,43.1,30.18,SE,143,0.0,0.0,75,0.00,,,0.01,0,Wunderground v.1.15,2013-02-07 02:32:00,
2013-02-06 18:42:00,50.4,43.1,30.18,SSE,147,0.0,0.0,76,0.00,,,0.01,0,Wunderground v.1.15,2013-02-07 02:42:00,
2013-02-06 18:52:00,50.1,43.2,30.18,East,94,0.0,0.0,77,0.00,,,0.01,0,Wunderground v.1.15,2013-02-07 02:52:00,
2013-02-06 19:02:00,49.7,42.8,30.18,East,83,0.0,0.0,77,0.00,,,0.01,0,Wunderground v.1.15,2013-02-07 03:02:00,
2013-02-06 19:12:00,49.3,42.7,30.19,East,83,0.0,0.0,78,0.00,,,0.01,0,Wunderground v.1.15,2013-02-07 03:12:00,
2013-02-06 19:22:00,49.2,43.0,30.19,WSW,254,0.0,0.0,79,0.00,,,0.01,0,Wunderground v.1.15,2013-02-07 03:22:00,
2013-02-06 19:32:00,48.9,42.7,30.20,West,275,0.0,0.0,79,0.00,,,0.01,0,Wunderground v.1.15,2013-02-07 03:32:00,
2013-02-06 19:42:00,48.6,42.7,30.20,West,280,0.0,0.0,80,0.00,,,0.01,0,Wunderground v.1.15,2013-02-07 03:42:00,
2013-02-06 19:52:00,48.3,42.7,30.20,NNW,329,0.0,0.0,81,0.00,,,0.01,0,Wunderground v.1.15,2013-02-07 03:52:00,
2013-02-06 20:02:00,48.1,42.5,30.20,NNW,331,0.0,0.0,81,0.00,,,0.01,0,Wunderground v.1.15,2013-02-07 04:02:00,
2013-02-06 20:12:00,47.9,42.7,30.20,NNW,331,0.0,0.0,82,0.00,,,0.01,0,Wunderground v.1.15,2013-02-07 04:12:00,
2013-02-06 20:22:00,47.7,42.5,30.20,NNW,330,0.0,0.0,82,0.00,,,0.01,0,Wunderground v.1.15,2013-02-07 04:22:00,
2013-02-06 20:32:00,47.4,42.5,30.21,NNW,330,0.0,0.0,83,0.00,,,0.01,0,Wunderground v.1.15,2013-02-07 04:32:00,
2013-02-06 20:42:00,47.2,42.6,30.21,SSW,201,0.0,2.0,84,0.00,,,0.01,0,Wunderground v.1.15,2013-02-07 04:42:00,
2013-02-06 20:52:00,47.1,42.5,30.21,South,171,0.0,2.0,84,0.00,,,0.01,0,Wunderground v.1.15,2013-02-07 04:52:00,
2013-02-06 21:02:00,46.8,42.2,30.21,South,171,1.0,2.0,84,0.00,,,0.01,0,Wunderground v.1.15,2013-02-07 05:02:00,
2013-02-06 21:12:00,46.6,42.0,30.21,South,173,1.0,1.0,84,0.00,,,0.01,0,Wunderground v.1.15,2013-02-07 05:12:00,
2013-02-06 21:22:00,46.3,41.7,30.21,South,171,1.0,1.0,84,0.00,,,0.01,0,Wunderground v.1.15,2013-02-07 05:22:00,
2013-02-06 21:32:00,46.1,41.5,30.21,SSE,159,2.0,4.0,84,0.00,,,0.01,0,Wunderground v.1.15,2013-02-07 05:32:00,
2013-02-06 21:42:00,46.0,41.4,30.21,SSE,163,2.0,2.0,84,0.00,,,0.01,0,Wunderground v.1.15,2013-02-07 05:42:00,
2013-02-06 21:52:00,45.8,40.9,30.21,SSE,163,0.0,0.0,83,0.00,,,0.01,0,Wunderground v.1.15,2013-02-07 05:52:00,
2013-02-06 22:02:00,45.5,40.6,30.21,SSE,163,0.0,1.0,83,0.00,,,0.01,0,Wunderground v.1.15,2013-02-07 06:02:00,
2013-02-06 22:12:00,45.1,40.2,30.21,SSE,163,1.0,1.0,83,0.00,,,0.01,0,Wunderground v.1.15,2013-02-07 06:12:00,
2013-02-06 22:22:00,44.6,39.8,30.21,SSE,163,3.0,3.0,83,0.00,,,0.01,0,Wunderground v.1.15,2013-02-07 06:22:00,
2013-02-06 22:32:00,44.5,40.0,30.21,SSE,150,3.0,3.0,84,0.00,,,0.01,0,Wunderground v.1.15,2013-02-07 06:32:00,
2013-02-06 22:42:00,44.5,40.0,30.21,SSE,164,3.0,3.0,84,0.00,,,0.01,0,Wunderground v.1.15,2013-02-07 06:42:00,
2013-02-06 22:52:00,44.1,39.6,30.21,SE,136,3.0,4.0,84,0.00,,,0.01,0,Wunderground v.1.15,2013-02-07 06:52:00,
2013-02-06 23:02:00,43.6,39.1,30.21,SE,138,2.0,2.0,84,0.00,,,0.01,0,Wunderground v.1.15,2013-02-07 07:02:00,
2013-02-06 23:12:00,43.5,39.3,30.21,SE,144,4.0,5.0,85,0.00,,,0.01,0,Wunderground v.1.15,2013-02-07 07:12:00,
2013-02-06 23:22:00,43.8,39.9,30.22,SE,139,6.0,6.0,86,0.00,,,0.01,0,Wunderground v.1.15,2013-02-07 07:22:00,
2013-02-06 23:32:00,43.4,39.2,30.21,SSE,149,4.0,5.0,85,0.00,,,0.01,0,Wunderground v.1.15,2013-02-07 07:32:00,
2013-02-06 23:42:00,43.7,39.8,30.22,SSE,165,3.0,3.0,86,0.00,,,0.01,0,Wunderground v.1.15,2013-02-07 07:42:00,
2013-02-06 23:52:00,43.7,39.8,30.22,SW,221,1.0,1.0,86,0.00,,,0.01,0,Wunderground v.1.15,2013-02-07 07:52:00,